Find Starlink 35067

NORAD ID: 65527 Int'l Des: 2025-200 Owner: SPXS Country: US Constellation: starlink operational
LEOCIRCULARRETROGRADESSO

現在のビュー

3D地球を読み込み中...

Starlink 35067について

説明を読み込み中...

次回通過

Passes for default location (London). Set your location on the main map for personalized predictions.

高度履歴

Loading altitude history...

軌道要素

1 65527U 25200H 26146.15078714 .00003452 00000-0 24315-3 0 9998
2 65527 97.4471 215.7180 0002022 148.4805 211.6543 15.05656687 40789
Epoch: May 26, 2026 • Age: 18 hours

現在のステータス

高度 560.7 km
速度 7.58 km/s
衛星直下点 -31.31°S, 175.95°E
打ち上げ日 Sep 6, 2025
運用期間 0.7 years
タイプ internet

技術仕様

分類 Payload
質量 575.00 kg
乾燥質量 530.00 kg
総質量 575.00 kg
長さ 0.30 m
直径 4.10 m
スパン 29.00 m
形状 Box + pan
製造者 SPXS
バスタイプ Starlink V2MO
フェーズステータス In Orbit
所有者/国 SPXS/US

Most Searched